Meteo Giornale » Osservazioni meteo Russia » Bratsk-Irkutsk
ore: 06:00 - Osservazioni Meteo Bratsk-Irkutsk
Lat. 56° 22' N Lon. 101° 41' E Alt. 490 metri s.l.m.
12 °C
Sereno
Temp. 24 Ore
9 °C
20 °C
Est
14.4 Km/h
Dew point 12 °C
Umidità 100 %
Visibilità 10 Km
Il sole sorge alle ore 06:16
Il sole tramonta alle ore 20:10
| Data e Ora | Cielo e Fenomeni | T °C | DP °C | Um. % | Pres. hPa | Vis. km | Vento km/h | |
|---|---|---|---|---|---|---|---|---|
| Oggi h: 06:00 | Sereno | 12 | 12 | 100 | 1005 | 10 | E 14.4 | |
| Oggi h: 05:30 | Sereno | 12 | 11 | 93 | 1006 | 10 | E 10.8 | |
| Oggi h: 05:00 | Sereno | 11 | 10 | 93 | 1007 | 10 | E 14.4 | |
| Oggi h: 04:30 | Banco di nebbia | 11 | 10 | 93 | 1007 | 0.4 | E 10.8 | |
| Oggi h: 04:00 | Poco Nuvoloso | 11 | 11 | 100 | 1008 | 9 | E/SE 10.8 | |
| Oggi h: 03:49 | Poco Nuvoloso | 11 | 11 | 100 | 1008 | 6 | E/SE 10.8 | |
| Oggi h: 03:30 | Nebbia | 11 | 11 | 100 | 1008 | 0.35 | N 7.2 | |
| Oggi h: 03:29 | Nebbia | 11 | 11 | 100 | 1008 | 0.55 | N 7.2 | |
| Oggi h: 03:28 | Nebbia | 11 | 11 | 100 | 1008 | 0.8 | N 7.2 | |
| Oggi h: 03:22 | Foschia | 11 | 11 | 100 | 1008 | 1 | N 7.2 | |
| Oggi h: 03:21 | Foschia | 11 | 11 | 100 | 1008 | 2 | N 7.2 | |
| Oggi h: 03:00 | Sereno | 11 | 11 | 100 | 1008 | 9 | E 10.8 | |
| Oggi h: 02:30 | Sereno | 11 | 10 | 93 | 1009 | 6 | N 7.2 | |
| Oggi h: 02:00 | Sereno | 9 | 9 | 100 | 1009 | 10 | N 7.2 | |
| Oggi h: 01:30 | Sereno | 10 | 10 | 100 | 1009 | 0.8 | N 3.6 | |
| Oggi h: 01:00 | Sereno | 11 | 11 | 100 | 1009 | 0.8 | N 3.6 | |
| Oggi h: 00:30 | Sereno | 12 | 11 | 93 | 1010 | 8 | N 3.6 | |
| Oggi h: 00:00 | Sereno | 12 | 11 | 93 | 1010 | 10 | O/NO 10.8 | |
| Ieri h: 23:30 | Sereno | 12 | 12 | 100 | 1010 | 9 | N 3.6 | |
| Ieri h: 23:00 | Sereno | 13 | 12 | 93 | 1010 | 10 | N 3.6 | |
| Ieri h: 22:30 | Sereno | 13 | 12 | 93 | 1010 | 10 | N 7.2 | |
| Ieri h: 22:00 | Sereno | 14 | 13 | 93 | 1011 | 10 | N 7.2 | |
| Ieri h: 21:30 | Sereno | 14 | 13 | 93 | 1010 | 10 | N 7.2 | |
| Ieri h: 21:00 | Sereno | 15 | 13 | 87 | 1010 | 10 | O/SO 10.8 | |
| Ieri h: 20:30 | Sereno | 16 | 14 | 87 | 1010 | 10 | O/SO 10.8 | |
| Ieri h: 20:00 | Sereno | 17 | 14 | 82 | 1010 | 10 | O/SO 14.4 | |
| Ieri h: 19:30 | Sereno | 17 | 14 | 82 | 1010 | 10 | O 14.4 | |
| Ieri h: 19:00 | Sereno | 18 | 14 | 77 | 1009 | 10 | N 7.2 | |
| Ieri h: 18:30 | Nuvoloso | 18 | 14 | 77 | 1009 | 10 | N 7.2 | |
| Ieri h: 18:00 | Nuvoloso | 19 | 14 | 72 | 1009 | 10 | N 7.2 | |
| Ieri h: 17:30 | Nuvoloso | 19 | 14 | 72 | 1009 | 10 | N 3.6 | |
| Ieri h: 17:00 | Molto Nuvoloso | 19 | 14 | 72 | 1008 | 10 | N 3.6 | |
| Ieri h: 16:30 | Molto Nuvoloso | 19 | 14 | 72 | 1008 | 10 | N 7.2 | |
| Ieri h: 16:00 | Molto Nuvoloso | 19 | 13 | 68 | 1009 | 10 | S 10.8 | |
| Ieri h: 15:30 | Pioggia | 19 | 13 | 68 | 1008 | 10 | S 10.8 | |
| Ieri h: 15:00 | Sereno | 20 | 13 | 64 | 1008 | 10 | S 10.8 | |
| Ieri h: 14:30 | Sereno | 20 | 13 | 64 | 1008 | 10 | S/SE 10.8 | |
| Ieri h: 14:00 | Sereno | 20 | 13 | 64 | 1008 | 10 | S 14.4 | |
| Ieri h: 13:30 | Sereno | 20 | 13 | 64 | 1008 | 10 | S 14.4 | |
| Ieri h: 13:00 | Sereno | 20 | 13 | 64 | 1007 | 10 | SE 14.4 | |
| Ieri h: 12:30 | Sereno | 19 | 13 | 68 | 1007 | 10 | SE 14.4 | |
| Ieri h: 12:00 | Sereno | 20 | 12 | 59 | 1007 | 10 | S/SE 18 | |
| Ieri h: 11:30 | Sereno | 19 | 12 | 63 | 1008 | 10 | S/SE 18 | |
| Ieri h: 11:00 | Sereno | 18 | 11 | 63 | 1008 | 10 | S/SE 18 | |
| Ieri h: 10:30 | Sereno | 18 | 12 | 67 | 1008 | 10 | SE 18 | |
| Ieri h: 10:00 | Sereno | 17 | 11 | 67 | 1009 | 10 | E/SE 18 | |
| Ieri h: 09:30 | Sereno | 16 | 12 | 77 | 1009 | 10 | E/SE 18 | |
| Ieri h: 09:00 | Sereno | 16 | 11 | 72 | 1009 | 10 | E/SE 18 | |
| Ieri h: 08:30 | Sereno | 15 | 11 | 76 | 1009 | 10 | E/SE 14.4 | |
| Ieri h: 08:00 | Sereno | 14 | 11 | 82 | 1009 | 10 | E 14.4 | |
| Ieri h: 07:30 | Sereno | 14 | 11 | 82 | 1009 | 10 | E 14.4 | |
| Ieri h: 07:00 | Sereno | 13 | 11 | 87 | 1010 | 10 | E 10.8 | |



